Location: *
(33.8649°S, 62.1526°E)
Time: 04:43:49
(UTC+00:00)

Cosmos 2297 Rocket - Pass Details

Date: 17 January 2021
Orbit: 841 x 842 km, 71.0° (Epoch: 27 February)

Event Time Altitude Azimuth Distance (km) Brightness Sun altitude
Exits shadow 23:19:36 23° 349° (N) 1,725 3.4 -18.0°
Maximum altitude 23:23:15 76° 71° (ENE) 875 2.3 -17.5°
Drops below altitude 10° 23:28:57 10° 156° (SSE) 2,487 5.6 -16.6°
Sets 23:31:25 0° 157° (SSE) 3,429 6.5 -16.2°
